[[{"header":{"parameterUnit":"m.s-1","parameterCategory":1,"la1":30.2991,"la2":30.254,"lo1":-89.0895,"lo2":-89.0444,"dy":0.0017,"dx":0.0017,"nx":28,"ny":28,"refTime":"2025-03-12T09:00:00:Z","depth":0,"parameterNumber":2,"parameterNumberName":"U-component_of_WINDS"},"data":[0,0,0,0,0,0,0,0,0,0,0,0,0,0,0,0,0,0,0,0,0,0,0,0,0,0,0,0,0,0,0,0,0,0,0,0,0,0,0,0,0,0,0,0,0,0,0,0,0,0,0,0,0,0,0,0,0,0,1.4744,1.4746,0,1.4901,1.4902,1.4904,1.491,1.4908,1.4906,1.4905,1.507,1.5076,1.5082,0,0,0,0,0,0,0,0,0,0,0,0,0,1.4455,1.446,1.4744,1.4746,1.4748,1.49,1.4902,1.4905,1.491,1.4908,1.4906,1.4904,1.5068,1.5075,1.5083,0,0,0,0,0,0,0,0,0,0,0,0,0,1.4593,1.4462,1.4744,1.4769,1.4773,1.49,1.4903,1.4905,1.4911,1.4908,1.4905,1.4903,1.5066,1.5075,1.5084,1.5198,0,0,1.5112,1.5116,0,0,0,0,0,0,0,0,1.4585,1.4603,1.4763,1.4768,1.4772,1.4883,1.4861,1.5003,1.4912,1.4859,1.4905,1.4901,1.5011,1.5024,1.506,1.5205,1.5213,1.5113,1.5119,1.5123,1.5125,0,0,0,0,0,0,0,1.4575,1.4597,1.4806,1.4766,1.4771,1.4774,1.4791,1.4888,1.4949,1.4863,1.4864,1.4882,1.5012,1.5051,1.5064,1.5215,1.5113,1.5121,1.5127,1.513,1.5461,1.5464,0,0,0,0,0,0,1.456,1.4589,1.4801,1.4811,1.4669,1.4782,1.48,1.485,1.4948,1.496,1.4884,1.4882,1.5037,1.5053,1.507,1.5208,1.5122,1.5131,1.5136,1.5458,1.5462,1.5465,0,0,0,0,0,0,1.4554,1.4579,1.4795,1.47,1.4728,1.479,1.4846,1.4855,1.4893,1.4964,1.4975,1.4912,1.5035,1.5057,1.5165,1.5214,1.5135,1.5144,1.5454,1.5459,1.5463,1.5486,0,0,0,0,0,0,1.4545,1.4577,1.4619,1.4701,1.4733,1.4886,1.4849,1.486,1.4909,1.4907,1.4993,1.5004,1.5034,1.5151,1.5174,1.5225,1.5151,1.545,1.5456,1.5462,1.5481,1.5491,1.5499,0,0,0,0,0,1.4535,1.4621,1.4622,1.4647,1.4787,1.4889,1.4907,1.4939,1.4912,1.4956,1.5002,1.5002,1.5205,1.5162,1.5188,1.5243,1.5447,1.5454,1.5461,1.5477,1.5489,1.5499,0,0,0,0,0,0,1.4546,1.4632,1.4634,1.4748,1.4811,1.489,1.4946,1.4951,1.5023,1.5019,1.5056,1.5076,1.5183,1.5224,1.5175,1.5357,1.5323,1.5336,1.5326,1.5338,1.5347,1.5334,1.5159,0,0,0,0,0,1.4561,1.4635,1.4707,1.4802,1.4833,1.4884,1.493,1.4948,1.5015,1.5042,1.5096,1.5162,1.5241,1.5292,1.5369,1.5488,1.5506,1.5538,1.5547,1.5554,1.5564,1.5629,1.5644,1.5489,1.5489,1.5489,0,0,1.4594,1.4651,1.4696,1.4805,1.4856,1.4932,1.4907,1.4989,1.5047,1.5056,1.516,1.5202,1.5279,1.5392,1.5445,1.543,1.5611,1.5563,1.5569,1.5575,1.5638,1.5653,1.5666,1.5494,1.5493,1.5492,0,0,1.4693,1.4744,1.4827,1.4878,1.4954,1.4988,1.5007,1.5086,1.5113,1.5218,1.5226,1.5296,1.5431,1.5485,1.553,1.5649,1.5652,1.5674,1.5721,1.5783,1.5795,1.5806,1.5847,1.5862,1.5684,1.5684,1.5684,0,1.4725,1.4839,1.487,1.4951,1.4999,1.5009,1.5094,1.5143,1.5241,1.5274,1.5256,1.5424,1.5477,1.5603,1.5631,1.5668,1.5692,1.5663,1.5791,1.5802,1.5813,1.5852,1.5868,1.5686,1.5686,1.5685,1.5685,0,1.4874,1.4953,1.5011,1.5103,1.5158,1.5241,1.5285,1.5337,1.5351,1.5387,1.5494,1.5557,1.5646,1.5678,1.5693,1.5806,1.5794,1.5783,1.5749,1.5829,1.5867,1.5882,1.5689,1.5688,1.5687,1.5687,0,0,1.4983,1.509,1.5111,1.5152,1.5237,1.5299,1.5383,1.5468,1.5511,1.558,1.5651,1.5764,1.5754,1.5806,1.5827,1.5883,1.5971,1.5865,1.5867,1.5881,1.6097,1.6103,1.612,1.5973,1.5976,1.5979,1.609,0,1.509,1.5236,1.5266,1.5394,1.5467,1.5477,1.5551,1.5611,1.5647,1.5716,1.5756,1.5835,1.5817,1.5847,1.5903,1.5948,1.6014,1.5941,1.604,1.6043,1.6018,1.614,1.6147,1.6249,1.6105,1.6108,1.611,0,1.5234,1.5302,1.5436,1.551,1.5542,1.5607,1.5686,1.5752,1.5821,1.5843,1.59,1.5915,1.6004,1.5966,1.6089,1.6038,1.6081,1.611,1.6114,1.6123,1.608,1.6151,1.6283,1.6297,1.6133,1.6132,1.613,0,1.5297,1.5424,1.552,1.5555,1.5644,1.5689,1.5729,1.5795,1.5844,1.5915,1.5947,1.6028,1.6071,1.6134,1.6171,1.6141,1.6291,1.6257,1.6312,1.6311,1.6341,1.6339,1.648,1.6372,1.6372,1.6372,1.6371,0,1.5412,1.5493,1.5549,1.5608,1.57,1.5734,1.5824,1.5864,1.5922,1.599,1.6006,1.6069,1.6115,1.6186,1.6216,1.6312,1.6333,1.6353,1.636,1.6351,1.6348,1.6378,1.6371,1.6376,1.6375,1.6374,1.6373,0,1.5498,1.5539,1.5644,1.5719,1.574,1.5804,1.5869,1.5927,1.5963,1.6049,1.6071,1.6128,1.6211,1.6255,1.636,1.6381,1.6488,1.6492,1.6463,1.6466,1.6517,1.6511,1.6681,1.6705,1.6583,1.6584,1.6585,0,1.5567,1.563,1.5711,1.5756,1.5796,1.587,1.5919,1.5955,1.6006,1.6089,1.6137,1.6221,1.629,1.6423,1.6475,1.6556,1.656,1.6615,1.6573,1.6561,1.6559,1.6554,1.656,1.6621,1.6622,1.6623,1.6624,0,1.5686,1.5703,1.5772,1.5848,1.5906,1.5968,1.603,1.6067,1.6114,1.617,1.6254,1.6308,1.6414,1.6497,1.6581,1.6624,1.6632,1.6637,1.6654,1.6644,1.6624,1.6633,1.6481,1.6633,1.6632,1.6631,1.6631,1.663,1.5765,1.582,1.5885,1.5961,1.6011,1.6068,1.6126,1.6168,1.6239,1.6326,1.6345,1.6433,1.6501,1.6615,1.666,1.6731,1.672,1.6744,1.675,1.6755,1.6756,1.6614,1.6747,1.6747,1.6747,1.6746,1.6746,0,1.5882,1.5924,1.5994,1.6079,1.6139,1.614,1.6208,1.6259,1.6336,1.6398,1.6465,1.6561,1.6642,1.67,1.6782,1.6828,1.6834,1.6848,1.6844,1.6854,1.6763,1.6739,1.6842,1.6842,1.6842,1.6842,1.6842,1.6842,1.595,1.6043,1.6067,1.6185,1.6228,1.6313,1.6352,1.6405,1.6454,1.656,1.6626,1.6663,1.6723,1.681,1.6884,1.6899,1.6928,1.6942,1.6957,1.687,1.686,1.685,1.6828,1.6948,1.6948,1.7042,1.7043,1.7043]},{"header":{"parameterUnit":"m.s-1","parameterCategory":1,"la1":30.2991,"la2":30.254,"lo1":-89.0895,"lo2":-89.0444,"dy":0.0017,"dx":0.0017,"nx":28,"ny":28,"refTime":"2025-03-12T09:00:00:Z","depth":0,"parameterNumber":3,"parameterNumberName":"V-component_of_WINDS"},"data":[0,0,0,0,0,0,0,0,0,0,0,0,0,0,0,0,0,0,0,0,0,0,0,0,0,0,0,0,0,0,0,0,0,0,0,0,0,0,0,0,0,0,0,0,0,0,0,0,0,0,0,0,0,0,0,0,0,0,1.2859,1.2858,0,1.2815,1.2815,1.2814,1.275,1.2749,1.2748,1.2747,1.2703,1.2703,1.2703,0,0,0,0,0,0,0,0,0,0,0,0,0,1.2887,1.2887,1.2859,1.2858,1.2858,1.2815,1.2815,1.2814,1.275,1.2749,1.2748,1.2746,1.2703,1.2703,1.2703,0,0,0,0,0,0,0,0,0,0,0,0,0,1.2862,1.2887,1.2859,1.2821,1.2817,1.2816,1.2815,1.2814,1.2751,1.2749,1.2747,1.2746,1.2703,1.2703,1.2703,1.2735,0,0,1.2702,1.2702,0,0,0,0,0,0,0,0,1.2864,1.2861,1.2827,1.2823,1.2819,1.2786,1.2809,1.2788,1.2751,1.2776,1.2747,1.2745,1.2732,1.273,1.2725,1.2733,1.2732,1.2702,1.2702,1.2702,1.2702,0,0,0,0,0,0,0,1.2865,1.2863,1.2842,1.2827,1.2822,1.2806,1.2801,1.2804,1.2764,1.2774,1.2769,1.2765,1.273,1.2726,1.2724,1.2731,1.2702,1.2702,1.2702,1.2702,1.2763,1.2764,0,0,0,0,0,0,1.2873,1.2865,1.2843,1.284,1.2838,1.2807,1.2801,1.2799,1.2764,1.2757,1.2766,1.2762,1.2727,1.2724,1.2722,1.2757,1.2702,1.2702,1.2702,1.2761,1.2763,1.2765,0,0,0,0,0,0,1.2874,1.2871,1.2845,1.2851,1.2847,1.2808,1.2806,1.2799,1.2794,1.2758,1.2751,1.2769,1.2725,1.2722,1.2732,1.2755,1.2702,1.2702,1.2759,1.2762,1.2764,1.2828,0,0,0,0,0,0,1.2875,1.2872,1.2884,1.2852,1.2846,1.2856,1.2808,1.2799,1.2794,1.2788,1.2759,1.2753,1.2724,1.2733,1.2732,1.2754,1.2702,1.2757,1.276,1.2763,1.2824,1.2833,1.284,0,0,0,0,0,1.2876,1.2904,1.2885,1.2883,1.2861,1.2858,1.2854,1.282,1.2796,1.2808,1.2784,1.2753,1.2752,1.2735,1.2733,1.2755,1.2755,1.2759,1.2763,1.282,1.2831,1.284,0,0,0,0,0,0,1.2941,1.2899,1.2878,1.2896,1.2881,1.2847,1.286,1.2833,1.2824,1.2819,1.2777,1.2771,1.2787,1.2772,1.2752,1.2784,1.2749,1.2753,1.2793,1.2803,1.2811,1.2814,1.2701,0,0,0,0,0,1.2957,1.2958,1.2922,1.2942,1.2935,1.2899,1.2897,1.2872,1.2854,1.2847,1.2825,1.2809,1.2805,1.2803,1.2797,1.2822,1.2814,1.2836,1.2844,1.2851,1.2854,1.2865,1.2874,1.2778,1.2778,1.2778,0,0,1.2991,1.2969,1.2972,1.2954,1.2939,1.2941,1.2894,1.2898,1.2899,1.2848,1.2856,1.2839,1.2818,1.2836,1.2842,1.2824,1.2879,1.2856,1.2861,1.2861,1.287,1.2879,1.2888,1.278,1.278,1.2779,0,0,1.3054,1.3037,1.3051,1.3037,1.3015,1.2991,1.2995,1.2964,1.2951,1.2958,1.292,1.292,1.2914,1.2901,1.2894,1.2951,1.2922,1.295,1.2993,1.3004,1.3011,1.3018,1.3038,1.3046,1.2954,1.2954,1.2954,0,1.3099,1.31,1.3063,1.3069,1.3062,1.3015,1.303,1.3018,1.2995,1.2992,1.2971,1.2962,1.2945,1.2958,1.2972,1.2968,1.2971,1.2953,1.3013,1.3019,1.3025,1.3043,1.3051,1.2958,1.2957,1.2957,1.2957,0,1.3156,1.3157,1.3172,1.315,1.3145,1.3156,1.312,1.3119,1.3095,1.3073,1.3081,1.3059,1.3047,1.3049,1.3025,1.3058,1.3047,1.3021,1.2985,1.3038,1.3055,1.3062,1.2963,1.2962,1.2961,1.296,0,0,1.3258,1.3216,1.3222,1.3212,1.3183,1.3184,1.3192,1.318,1.318,1.3166,1.3172,1.3168,1.3142,1.3134,1.3108,1.3118,1.3164,1.309,1.3089,1.3104,1.3199,1.3219,1.3228,1.3145,1.3146,1.3147,1.32,0,1.3315,1.3326,1.3293,1.3313,1.3313,1.3269,1.3275,1.3259,1.3239,1.3236,1.3213,1.3211,1.3178,1.3173,1.3181,1.3157,1.3183,1.3153,1.3149,1.315,1.3156,1.3236,1.3258,1.3309,1.3207,1.3208,1.3209,0,1.3383,1.3372,1.3392,1.3362,1.3361,1.3368,1.3354,1.3352,1.3332,1.3317,1.3307,1.3277,1.3283,1.3249,1.3255,1.3236,1.3232,1.322,1.3222,1.322,1.3182,1.3236,1.3325,1.3332,1.3219,1.3218,1.3217,0,1.3455,1.3445,1.3456,1.3448,1.3414,1.3419,1.3405,1.3384,1.3379,1.3367,1.3364,1.3353,1.3347,1.3339,1.3307,1.3285,1.3318,1.3281,1.3305,1.3305,1.3313,1.3313,1.3402,1.3312,1.3312,1.3312,1.3311,0,1.3522,1.3536,1.3487,1.3494,1.3508,1.3469,1.3484,1.3465,1.3446,1.3448,1.3409,1.3412,1.3369,1.3367,1.3342,1.3351,1.3349,1.3336,1.3329,1.3339,1.3341,1.3336,1.3332,1.3314,1.3313,1.3313,1.3312,0,1.3605,1.3573,1.3581,1.3548,1.354,1.3552,1.3523,1.3527,1.3504,1.3507,1.3505,1.3469,1.3464,1.3432,1.342,1.3402,1.3421,1.3407,1.3427,1.3423,1.3448,1.3446,1.3537,1.3546,1.3451,1.3452,1.3453,0,1.365,1.3659,1.3626,1.3625,1.3612,1.361,1.3605,1.3567,1.3563,1.3541,1.3548,1.354,1.3532,1.3526,1.3499,1.3489,1.3474,1.3507,1.3473,1.3483,1.3474,1.3474,1.3474,1.3514,1.3515,1.3516,1.3517,0,1.3732,1.3716,1.3709,1.3698,1.3692,1.3681,1.3668,1.3669,1.3627,1.3624,1.3619,1.3612,1.36,1.3592,1.3578,1.3563,1.3533,1.3528,1.3533,1.3543,1.3555,1.3548,1.3447,1.3526,1.3525,1.3525,1.3524,1.3524,1.3796,1.3802,1.378,1.3775,1.376,1.3749,1.3751,1.3728,1.3723,1.3709,1.3687,1.3685,1.3664,1.3642,1.3629,1.3627,1.3609,1.3617,1.3618,1.3621,1.3626,1.3556,1.3624,1.3624,1.3623,1.3623,1.3623,0,1.3876,1.386,1.3855,1.3837,1.3832,1.3805,1.3788,1.3786,1.3785,1.3768,1.376,1.3753,1.3746,1.3718,1.3707,1.371,1.3696,1.3709,1.3708,1.3705,1.3642,1.3639,1.372,1.372,1.372,1.372,1.372,1.372,1.3917,1.3926,1.3907,1.3908,1.3891,1.3888,1.3881,1.387,1.3856,1.385,1.3844,1.3825,1.3804,1.3791,1.3783,1.3775,1.3772,1.3789,1.3777,1.3719,1.3709,1.37,1.3697,1.3789,1.3789,1.3839,1.384,1.384]}]]